AO-07 1 07530U 74089B 10066.44971123 -.00000027 00000-0 10000-3 0 7214 2 07530 101.4093 086.2436 0012142 113.2849 246.9502 12.53577976615701 FO-29 1 24278U 96046B 10067.60400914 -.00000040 00000-0 -55559-5 0 02641 2 24278 098.5205 270.6103 0351161 024.8853 336.8762 13.52948256669506 SO-33 1 25509U 98061B 10067.82181575 .00000098 00000-0 76800-5 0 06659 2 25509 031.4319 356.0753 0353791 132.3958 230.7172 14.28293514593695 RS-22 1 27939U 03042A 10067.68156601 .00000082 00000-0 24665-4 0 00275 2 27939 097.9070 297.3474 0014097 021.8279 338.3492 14.63388841344256 VO-52 1 28650U 05017B 10065.96025778 -.00000056 00000-0 -48351-6 0 04524 2 28650 097.7047 123.3226 0025955 250.1331 109.7052 14.81693688261554 SO-67 1 35870U 09049F 10066.11829584 .00000950 00000-0 43366-4 0 5105 2 35870 097.3455 117.7672 0012783 059.2172 353.1510 15.22924020 25930 HO-68 1 36122U 09072B 10067.68936806 -.00000045 00000-0 00000-0 0 01512 2 36122 100.4815 129.0914 0007274 204.2497 155.8273 13.16280003010993 UO-11 1 14781U 84021B 10065.71629039 .00000320 00000-0 49592-4 0 1917 2 14781 098.0686 117.0810 0008596 203.5595 156.5224 14.79775924396654 AO-16 1 20439U 90005D 10065.88526143 .00000011 00000-0 19712-4 0 8390 2 20439 098.3202 027.8837 0011894 108.6645 251.5836 14.31850627 50745 LO-19 1 20442U 90005G 10067.78592619 .00000062 00000-0 38314-4 0 07525 2 20442 098.2811 035.9163 0012854 098.8970 261.3666 14.32084024051184 AO-27 1 22825U 93061C 10065.45633486 .00000007 00000-0 19583-4 0 4722 2 22825 098.4744 016.1228 0007757 207.5313 152.5470 14.29288374857376 IO-26 1 22826U 93061D 10067.77989370 .00000024 00000-0 26233-4 0 02105 2 22826 098.4684 019.0228 0008567 194.8693 165.2246 14.29543374857816 GO-32 1 25397U 98043D 10065.17360531 -.00000087 00000-0 -20733-4 0 1288 2 25397 098.3168 078.2872 0001386 160.3802 199.7431 14.23172344605393 NO-44 1 26931U 01043C 10067.67039343 .00000219 00000-0 11776-3 0 04046 2 26931 067.0509 102.9492 0006589 263.6511 096.3844 14.29586903440389 SO-50 1 27607U 02058C 10067.69938348 .00000021 00000-0 25055-4 0 01212 2 27607 064.5586 301.7319 0037268 123.7537 236.7113 14.71507607387599 CO-55 1 27844U 03031E 10067.66557678 .00000065 00000-0 50591-4 0 07966 2 27844 098.7140 078.0773 0010899 099.7279 260.5126 14.20689200346814 CO-57 1 27848U 03031J 10067.68055389 .00000039 00000-0 38582-4 0 07499 2 27848 098.7163 077.1670 0010415 102.6765 257.5560 14.20484109346771 AO-51 1 28375U 04025K 10067.72092843 .00000039 00000-0 24264-4 0 06222 2 28375 098.0581 066.9587 0085152 042.3470 318.4246 14.40672663299041 GENESAT1 1 29655U 06058C 10066.15679461 .00052242 00000-0 31952-3 0 9671 2 29655 040.0191 326.1036 0007624 298.2580 061.7467 15.76371109183809 CP3 1 31129U 07012N 10065.55497851 .00000150 00000-0 45124-4 0 5219 2 31129 097.9533 110.5578 0102033 191.5974 168.2885 14.52217789152963 CO-65 1 32785U 08021C 10065.91782283 .00000102 00000-0 19773-4 0 6214 2 32785 097.9074 132.2098 0013933 257.2285 102.7366 14.81597077100340 KKS-1 1 33493U 09002B 10066.09591588 .00000537 00000-0 76316-4 0 2716 2 33493 098.0728 184.7996 0021177 110.4005 249.9483 14.80880931 60378 SOHLA-1 1 33496U 09002E 10067.72543768 .00000170 00000-0 36925-4 0 00451 2 33496 098.0468 178.1582 0007002 153.9205 206.2391 14.69474964060124 NOAA-10 1 16969U 86073A 10065.32130922 .00000077 00000-0 49445-4 0 9814 2 16969 098.6689 095.2051 0012802 148.4205 211.7758 14.27408810220907 NOAA-11 1 19531U 88089A 10065.35027120 -.00000007 00000-0 18792-4 0 9960 2 19531 098.7685 156.1267 0012321 080.8334 279.4224 14.14917051106591 NOAA-12 1 21263U 91032A 10065.46116431 .00000046 00000-0 38064-4 0 4807 2 21263 098.7697 078.6164 0013293 103.9078 256.3580 14.25619878977766 MET-3/5 1 21655U 91056A 10067.90124691 .00000051 00000-0 10000-3 0 07578 2 21655 082.5595 019.4825 0012230 237.9987 121.9978 13.17023261892470 MET-2/21 1 22782U 93055A 10067.77557837 -.00000032 00000-0 -41883-4 0 07179 2 22782 082.5506 332.1127 0021676 328.3054 031.6790 13.83643955834193 OKEAN-4 1 23317U 94066A 10067.70682779 .00000276 00000-0 31127-4 0 01727 2 23317 082.5376 087.6467 0021106 209.2431 150.7604 14.82777182831561 NOAA-14 1 23455U 94089A 10065.45244716 .00000030 00000-0 39256-4 0 9727 2 23455 098.8837 146.8932 0009604 162.3226 197.8282 14.13780433782983 NOAA-15 1 25338U 98030A 10065.20541645 .00000198 00000-0 10354-3 0 2919 2 25338 098.6127 054.0170 0010964 020.1387 340.0246 14.24810947614082 RESURS 1 25394U 98043A 10067.67230692 .00000004 00000-0 19221-4 0 04512 2 25394 098.3138 091.1898 0001888 126.9798 233.1559 14.24194596606049 FENGYUN1 1 25730U 99025A 10067.83839929 .00000100 00000-0 83808-4 0 09933 2 25730 098.7783 035.4327 0023201 188.0427 172.0401 14.08177448557560 OKEAN-0 1 25860U 99039A 10066.08984565 .00000045 00000-0 14289-4 0 9312 2 25860 097.8215 042.3221 0001861 066.2304 293.9091 14.73618886571868 NOAA-16 1 26536U 00055A 10066.29799181 .00000291 00000-0 18284-3 0 7694 2 26536 099.1765 081.3396 0009790 261.9492 098.0587 14.12550159487446 NOAA-17 1 27453U 02032A 10065.28004961 -.00000099 00000-0 -24809-4 0 7748 2 27453 098.4444 119.8053 0012691 079.8237 280.4387 14.24135730400059 NOAA-18 1 28654U 05018A 10066.49720207 -.00000082 00000-0 -20424-4 0 2602 2 28654 098.9413 013.1072 0014173 344.0936 015.9786 14.11332529247099 NOAA-19 1 33591U 09005A 10065.32854554 .00000361 00000-0 22451-3 0 4603 2 33591 098.7788 009.6855 0013531 218.1336 141.8884 14.11031813 55401 HUBBLE 1 20580U 90037B 10066.57864224 .00000570 00000-0 30822-4 0 05329 2 20580 028.4687 183.1574 0003395 198.8317 161.2293 15.00913799889472 ISS 1 25544U 98067A 10066.48187660 .00014123 00000-0 10239-3 0 7215 2 25544 051.6482 032.7439 0007757 023.0370 074.9567 15.73705588647450 CO-58 1 28895U 05043F 10067.63944091 .00000074 00000-0 24850-4 0 05309 2 28895 098.0271 315.3687 0016921 238.1906 121.7657 14.59855613232319 FALCON 1 30776U 07006E 10065.89131473 .00000704 00000-0 53596-4 0 7793 2 30776 035.4345 305.2874 0001717 343.4872 016.5788 15.03507708164658 MAST 1 31126U 07012K 10067.78935783 .00000066 00000-0 25220-4 0 08140 2 31126 097.9504 114.9330 0094474 177.5470 182.6183 14.53560879153476 CAPE1 1 31130U 07012P 10067.53675659 .00000197 00000-0 56121-4 0 08320 2 31130 097.9499 112.3033 0102494 185.8109 174.1921 14.52144186153057 COMPASS 1 32787U 08021E 10066.61121754 .00000597 00000-0 82325-4 0 06147 2 32787 097.9046 132.7210 0014822 254.8566 105.1033 14.81781113100451 AAUSAT2 1 32788U 08021F 10067.43414337 .00000661 00000-0 90089-4 0 06105 2 32788 097.9079 133.6431 0013870 252.7227 107.2438 14.81918785100589 DO-64 1 32789U 08021G 10065.89797618 .00001078 00000-0 14242-3 0 6233 2 32789 097.9107 132.4892 0014672 256.9700 102.9844 14.81998471100351 CO-66 1 32791U 08021J 10065.40323763 .00000262 00000-0 40139-4 0 6036 2 32791 097.9067 131.5534 0014983 258.6058 101.3481 14.81580913100237 RS-30 1 32953U 08025A 10067.59796295 .00000010 00000-0 00000-0 0 05439 2 32953 082.4975 092.2354 0018125 326.1040 033.8886 12.43004126081241 TACSAT-3 1 35001U 09028A 10066.51435938 .00005970 00000-0 14754-3 0 2324 2 35001 040.4553 104.3727 0023351 322.0728 037.8441 15.40591047 44948 PHARMSAT 1 35002U 09028B 10066.24672703 .00005264 00000-0 12780-3 0 2208 2 35002 040.4695 104.3829 0026386 323.8566 036.0466 15.41221037 44914 HAWKSAT1 1 35003U 09028C 10066.19738930 .00010480 00000-0 23331-3 0 2321 2 35003 040.4618 101.9687 0024726 332.0065 027.9415 15.43153776 44949 CP6 1 35004U 09028D 10067.46658570 .00012303 00000-0 26886-3 0 02283 2 35004 040.4624 093.9987 0023755 342.0491 017.9483 15.43616859045137 AEROCUB3 1 35005U 09028E 10067.47286393 .00024277 00000-0 50300-3 0 02534 2 35005 040.4731 094.3631 0021506 340.9109 019.0899 15.44896863045133 DRAGNSAT 1 35690U 09038B 10066.12079401 .00488055 13925-3 40347-3 0 3000 2 35690 051.6306 011.1391 0003966 161.9362 198.1771 16.13316135 34926 POLLUX 1 35693U 09038E 10066.22036237 .00236044 36335-4 33309-3 0 2979 2 35693 051.6332 013.4000 0004930 141.4160 218.7206 16.05207381 34870 CASTOR 1 35694U 09038F 10066.10399590 .00045708 00000-0 15816-3 0 2177 2 35694 051.6394 021.0992 0004594 131.4043 228.7236 15.88999850 34760 METEOR-M 1 35865U 09049A 10067.71387604 .00000176 00000-0 10000-3 0 01461 2 35865 098.7715 122.1725 0001868 309.8782 050.2181 14.21829086024448 RS-38 1 35869U 09049E 10067.69600013 .00000176 00000-0 10000-3 0 01497 2 35869 098.7707 122.1797 0004064 304.1186 055.9563 14.21976712024444